Starlink 31027

operational
NORAD ID: 58720 Int'l Des: 2024-002 Owner: SPXS Country: US Constellation: starlink
LEOCIRCULAR

About Starlink 31027

Description loading...

Live Position

Loading 3D Globe...

Upcoming Passes

Altitude History

Altitude vs Time

uPlot chart will show altitude changes over time

Two-Line Element Set

1 58720U 24002R 25349.97743638 .00027599 00000-0 93612-3 0 9996
2 58720 53.1580 258.4197 0001259 95.5295 264.5849 15.30351589109204
Epoch: Dec 15, 2025 • Age: 28 hours

Current Status

Altitude 485.1 km
Velocity 7.62 km/s
Sub-Earth Point -32.36°S, 30.78°W
Launch Date Jan 3, 2024
Age 1.9 years
Type internet

Technical Details

Classification Payload
Mass 730.00 kg
Dry Mass 700.00 kg
Total Mass 730.00 kg
Length 0.30 m
Diameter 4.10 m
Span 29.00 m
Shape Box + pan
Manufacturer SPXS
Bus Type Starlink V2M
Phase Status In Orbit
Owner/State SPXS/US

Large Constellations

Loading constellations...